This is the latest recevied weather packets stored in our database for station/object N2PPN. If no packets are shown the sender has not sent any weather packets the latest 10 day(s).
| Time | Temp. | Humidity | Pressure | Rain* | Wind** | Luminosity | Snow |
|---|---|---|---|---|---|---|---|
| 1778089586 | 13.89° C | 97% | 1012 hPa | 1.78 mm | - | 329 W/m² | - |
| 1778089282 | 13.89° C | 97% | 1011.8 hPa | 0 mm | - | 210 W/m² | - |
| 1778088980 | 13.89° C | 96% | 1011.8 hPa | 0 mm | - | 167 W/m² | - |
| 1778088677 | 13.89° C | 96% | 1012 hPa | 1.78 mm | - | 170 W/m² | - |
| 1778088374 | 13.89° C | 96% | 1012.1 hPa | 1.78 mm | - | 154 W/m² | - |
| 1778088070 | 13.89° C | 96% | 1012.1 hPa | 0 mm | - | 167 W/m² | - |
| 1778087768 | 13.89° C | 96% | 1012.5 hPa | 0 mm | - | 226 W/m² | - |
| 1778087465 | 13.89° C | 95% | 1012.6 hPa | 0 mm | - | 125 W/m² | - |
| 1778087161 | 13.89° C | 95% | 1012.6 hPa | 0 mm | - | 139 W/m² | - |
| 1778086854 | 13.89° C | 95% | 1012.7 hPa | 0 mm | - | 127 W/m² | - |
| 1778086552 | 13.89° C | 94% | 1012.6 hPa | 0 mm | - | 121 W/m² | - |
| 1778086248 | 13.89° C | 94% | 1012.9 hPa | 0 mm | - | 148 W/m² | - |
| 1778085945 | 14.44° C | 93% | 1012.9 hPa | 0 mm | - | 122 W/m² | - |
| 1778085643 | 14.44° C | 92% | 1013.1 hPa | 0 mm | - | 92 W/m² | - |
| 1778085338 | 14.44° C | 91% | 1013.2 hPa | 0 mm | - | 128 W/m² | - |
| 1778085034 | 14.44° C | 90% | 1012.9 hPa | 0 mm | - | 86 W/m² | - |
| 1778084730 | 14.44° C | 90% | 1013 hPa | 0 mm | - | 111 W/m² | - |
| 1778084427 | 14.44° C | 90% | 1013 hPa | 0 mm | - | 132 W/m² | - |
| 1778084125 | 14.44° C | 90% | 1013.2 hPa | 0 mm | - | 95 W/m² | - |
| 1778083816 | 15° C | 90% | 1013.3 hPa | 0 mm | - | 141 W/m² | - |
| 1778083513 | 15° C | 89% | 1013 hPa | 0 mm | - | 127 W/m² | - |
| 1778083210 | 14.44° C | 90% | 1013.2 hPa | 0 mm | - | 242 W/m² | - |
| 1778082909 | 14.44° C | 90% | 1013.3 hPa | 0 mm | - | 143 W/m² | - |
| 1778081801 | 14.44° C | 90% | 1013.3 hPa | 0 mm | - | 87 W/m² | - |
| 1778081498 | 14.44° C | 90% | 1013.3 hPa | 0 mm | - | 100 W/m² | - |
* Rain latest hour (hover to see other rain measurements)
** Current wind speed in m/s (hover to see current wind gust speed)